Location: Azul
(36.7830°S, 59.8500°W)
Time: 01:10:53
(UTC-03:00)

DELFI C3 - Pass Details

Date: 31 October 2021
Orbit: 529 x 543 km, 97.4° (Epoch: 30 November)

Event Time Altitude Azimuth Distance (km) Brightness Sun altitude
Rises 20:26:21 0° 160° (SSE) 2,729 ? -10.9°
Reaches altitude 10° 20:28:37 10° 152° (SSE) 1,825 ? -11.3°
Maximum altitude 20:32:18 38° 82° (E) 838 ? -11.9°
Drops below altitude 10° 20:35:56 10° 13° (NNE) 1,790 ? -12.6°
Enters shadow 20:36:25 - 10° (N) 1,977 ? -12.7°
